This is the latest recevied weather packets stored in our database for station/object K5NCO. If no packets are shown the sender has not sent any weather packets the latest 10 day(s).
| Time | Temp. | Humidity | Pressure | Rain* | Wind** | Luminosity | Snow |
|---|---|---|---|---|---|---|---|
| 1777936199 | 27.22° C | 63% | 1010.6 hPa | 0 mm | - | 85 W/m² | - |
| 1777935896 | 27.22° C | 63% | 1010.6 hPa | 0 mm | - | 261 W/m² | - |
| 1777935595 | 26.67° C | 62% | 1010.6 hPa | 0 mm | - | 300 W/m² | - |
| 1777935291 | 27.22° C | 63% | 1010.8 hPa | 0 mm | - | 303 W/m² | - |
| 1777934988 | 27.22° C | 63% | 1010.9 hPa | 0 mm | - | 320 W/m² | - |
| 1777934685 | 27.22° C | 62% | 1011 hPa | 0 mm | - | 332 W/m² | - |
| 1777934382 | 27.22° C | 62% | 1010.9 hPa | 0 mm | - | 157 W/m² | - |
| 1777934078 | 27.22° C | 61% | 1010.9 hPa | 0 mm | - | 406 W/m² | - |
| 1777933773 | 27.22° C | 61% | 1010.6 hPa | 0 mm | - | 342 W/m² | - |
| 1777933472 | 27.22° C | 62% | 1011.1 hPa | 0 mm | - | 242 W/m² | - |
| 1777933169 | 27.22° C | 61% | 1011 hPa | 0 mm | - | 128 W/m² | - |
| 1777932866 | 27.22° C | 62% | 1011.1 hPa | 0 mm | - | 457 W/m² | - |
| 1777932563 | 27.22° C | 62% | 1011.1 hPa | 0 mm | - | 449 W/m² | - |
| 1777932259 | 27.22° C | 63% | 1010.9 hPa | 0 mm | - | 163 W/m² | - |
| 1777931956 | 27.22° C | 63% | 1011 hPa | 0 mm | - | 478 W/m² | - |
| 1777931653 | 27.78° C | 61% | 1011.1 hPa | 0 mm | - | 543 W/m² | - |
| 1777931350 | 27.22° C | 62% | 1011.1 hPa | 0 mm | - | 483 W/m² | - |
| 1777931046 | 26.67° C | 62% | 1011.1 hPa | 0 mm | - | 482 W/m² | - |
| 1777930743 | 26.67° C | 63% | 1011.1 hPa | 0 mm | - | 435 W/m² | - |
| 1777930439 | 26.67° C | 63% | 1011.3 hPa | 0 mm | - | 508 W/m² | - |
| 1777930136 | 26.67° C | 63% | 1011.4 hPa | 0 mm | - | 188 W/m² | - |
| 1777929832 | 26.67° C | 62% | 1011.6 hPa | 0 mm | - | 194 W/m² | - |
| 1777929530 | 26.67° C | 62% | 1011.6 hPa | 0 mm | - | 516 W/m² | - |
| 1777929226 | 26.67° C | 62% | 1011.8 hPa | 0 mm | - | 548 W/m² | - |
| 1777928924 | 26.67° C | 62% | 1011.9 hPa | 0 mm | - | 480 W/m² | - |
* Rain latest hour (hover to see other rain measurements)
** Current wind speed in m/s (hover to see current wind gust speed)